Theta_e
314 314 314 313 313 312 311 310 309 307 309 309 308 310 313 314 313 312 310 308 308 310 310 309 310 310 310 310 310 310 311 310 310 310 310 310 311 311 310 311 311 311 311 312 310 308 309 310 310 310 310 310 311 312 312 312 312 312 312 312 312 312 312 312 313 312 311 312 311 310 310 310 310 310 309 309 309 309 310 310 310 311 312 312 313 314 315
313 314 314 313 313 312 311 310 308 306 306 307 308 310 313 314 314 312 309 308 309 309 308 309 309 310 311 311 310 310 311 310 310 310 309 310 310 310 310 310 311 311 310 312 312 309 309 310 310 310 310 310 311 312 312 312 311 312 313 313 312 313 313 313 314 313 314 314 313 312 312 311 311 311 310 310 310 310 311 310 310 312 312 312 313 313 314
313 314 314 313 313 312 311 310 308 306 306 307 308 310 312 313 314 311 308 309 310 310 309 309 310 310 310 310 310 310 311 311 311 310 310 311 310 310 310 310 311 311 311 311 312 310 309 310 309 309 310 310 311 312 312 312 312 313 314 313 313 313 313 314 314 315 316 316 315 315 315 313 312 312 312 312 312 312 312 312 312 313 312 312 314 314 314
313 314 314 314 313 312 311 310 308 307 306 307 308 310 312 313 311 310 308 308 309 310 309 310 311 311 310 310 310 310 310 311 310 310 310 310 310 310 310 311 311 311 311 312 311 311 310 310 309 310 310 310 311 312 312 313 314 314 314 314 314 313 314 314 314 315 316 316 315 316 315 315 314 314 314 313 313 313 313 314 314 314 314 314 315 315 315
313 314 314 314 314 313 312 310 309 308 307 307 308 311 313 310 309 310 309 309 310 310 309 310 311 311 310 309 310 310 310 311 310 309 310 310 310 311 311 311 311 311 312 312 312 311 311 310 310 310 310 310 311 312 312 312 314 315 314 314 314 314 314 314 314 315 315 315 315 315 315 315 314 314 314 315 315 315 315 315 315 314 315 316 316 316 317
313 314 314 314 314 313 312 311 309 308 308 308 308 310 310 308 308 311 310 309 311 311 310 311 311 312 310 309 310 311 310 310 310 309 310 310 310 311 311 311 311 311 311 312 312 311 310 310 311 310 311 311 311 312 313 313 314 314 314 314 314 314 315 315 314 314 314 315 316 315 315 315 314 314 315 315 315 315 316 316 315 315 316 317 316 317 317
313 314 314 314 314 313 313 312 310 308 308 309 308 308 309 308 307 308 309 309 311 311 311 311 311 311 309 308 310 311 309 310 310 309 310 310 310 311 311 311 310 310 311 312 313 312 311 311 311 311 311 312 311 312 313 314 314 314 313 313 314 314 315 315 314 315 315 316 316 315 315 315 315 315 315 315 315 314 315 315 314 314 315 315 315 316 316
314 314 314 314 314 313 313 312 311 309 308 309 309 307 307 308 308 307 307 310 311 312 311 311 311 310 308 308 310 310 309 309 310 309 310 310 310 311 311 311 311 311 311 312 312 312 312 312 312 312 312 312 312 313 313 313 313 313 313 313 314 315 315 315 314 316 316 316 316 316 315 315 316 316 315 314 314 313 313 314 313 314 314 314 314 315 315
314 314 314 314 314 313 313 313 311 310 308 308 310 308 304 306 308 307 307 310 311 311 312 311 311 309 308 308 310 310 309 309 310 310 309 310 310 310 311 311 311 311 312 312 312 312 311 312 313 313 313 313 313 313 313 313 313 313 314 314 314 315 315 315 315 316 316 316 316 316 316 315 316 316 316 315 315 314 314 314 313 313 314 314 315 315 315
314 314 314 314 314 313 313 313 311 311 308 306 309 309 304 304 307 307 308 309 310 311 312 311 311 310 309 309 309 309 309 310 310 310 310 310 311 311 311 312 312 312 312 312 311 311 311 312 312 312 313 314 313 313 313 313 313 313 314 315 314 315 315 315 316 316 317 316 316 316 317 318 318 318 317 316 314 314 314 314 313 312 313 313 314 316 317
314 314 314 314 314 313 313 313 311 311 308 305 307 308 304 302 305 308 308 309 309 310 310 310 310 311 310 310 309 309 309 310 310 311 310 310 311 311 312 312 312 311 312 312 311 311 312 312 313 313 314 314 314 314 314 314 314 315 315 315 315 315 316 316 316 317 317 317 317 318 320 322 322 321 320 318 316 316 315 314 315 316 316 316 317 317 317
314 314 314 314 314 313 313 313 312 311 308 305 306 308 305 302 304 307 308 308 309 310 310 310 310 310 310 309 309 309 310 310 310 310 311 311 312 312 312 312 312 312 312 312 312 312 313 313 313 314 314 315 315 316 316 315 315 316 316 316 316 316 316 316 316 317 318 318 319 321 323 323 321 320 321 321 321 322 318 315 317 320 321 322 324 322 321
313 313 314 314 314 314 313 313 312 311 309 305 305 308 307 304 304 307 308 307 308 309 309 310 310 309 309 309 310 311 310 310 310 311 311 312 312 312 312 312 312 312 312 312 313 313 314 313 313 314 314 315 316 316 316 316 316 316 317 317 317 317 316 316 316 317 318 319 320 322 323 322 320 320 320 321 322 323 322 319 320 322 323 324 326 326 325
312 313 314 314 314 314 313 313 312 311 309 306 305 307 307 304 302 304 306 306 307 308 309 309 309 309 309 310 311 311 310 310 310 310 311 312 312 312 312 312 312 312 312 312 313 313 313 313 314 314 313 314 316 315 315 315 315 316 316 316 317 318 317 317 318 318 318 320 321 320 321 321 320 320 320 321 321 323 324 323 321 322 322 323 326 327 325
312 313 314 314 314 314 313 313 312 311 310 307 305 307 307 304 302 303 305 306 306 307 308 308 309 309 309 310 310 309 309 309 310 310 310 311 312 311 311 312 311 311 312 313 313 313 312 313 314 314 314 315 315 315 314 314 315 315 316 316 318 319 318 318 319 319 318 320 320 320 322 322 320 319 319 320 320 321 323 324 322 322 322 322 324 326 326
312 313 314 314 315 314 313 313 312 312 310 307 305 307 308 306 303 302 304 306 307 307 307 308 309 308 308 310 309 308 308 309 309 309 310 311 311 311 311 311 312 311 312 313 313 313 312 313 314 314 314 315 315 315 314 314 315 315 315 316 317 318 318 319 319 318 318 320 321 321 321 321 319 319 318 319 320 320 322 325 324 322 322 321 323 325 325
313 314 314 314 315 314 313 313 312 312 310 307 305 305 306 306 303 301 303 306 306 306 307 308 307 307 308 308 308 308 308 309 308 309 309 310 311 311 310 311 311 311 312 312 312 312 312 313 313 313 314 314 314 315 315 314 315 316 316 317 317 318 318 318 319 319 319 320 320 320 320 319 318 318 318 319 319 320 323 326 324 321 321 321 323 324 324
314 314 314 315 315 314 313 313 312 312 311 308 305 304 306 306 304 302 302 305 306 306 308 307 306 307 308 308 307 308 309 309 309 309 309 310 311 310 310 311 311 312 312 311 312 312 312 312 312 312 313 313 313 314 313 313 315 316 316 317 317 317 317 317 318 319 318 319 319 319 319 317 316 317 318 318 319 321 324 324 322 321 321 321 322 322 322
315 315 315 315 315 314 313 313 313 312 311 309 305 304 305 305 304 302 302 304 305 306 305 305 306 307 308 308 307 308 308 309 309 309 309 309 310 309 310 311 311 311 311 311 311 312 312 312 312 311 312 313 313 313 312 314 316 315 315 317 317 317 317 318 318 318 318 317 317 318 318 317 316 317 318 318 320 322 322 321 320 320 321 321 321 320 321
316 316 316 315 315 314 313 313 313 312 311 309 306 303 304 305 304 303 302 303 304 304 304 306 307 307 307 306 307 307 308 308 309 309 308 309 309 309 311 311 311 311 310 310 311 311 311 311 311 311 312 313 313 313 313 314 315 314 315 317 317 316 317 318 317 317 317 316 316 318 318 316 316 317 317 318 319 320 320 319 320 320 320 320 320 319 319
316 316 316 315 315 315 313 313 313 312 311 310 306 304 305 305 304 303 302 302 302 303 305 306 305 304 305 306 306 306 307 307 308 308 308 308 309 309 310 311 311 310 310 310 311 311 310 310 311 311 311 312 313 313 314 314 314 314 314 316 316 316 317 317 317 316 316 316 317 317 317 316 316 317 317 317 318 318 318 319 320 320 320 320 319 318 318
316 316 316 315 315 315 314 313 313 312 311 309 306 304 305 305 304 303 303 302 302 302 303 303 303 304 306 307 306 306 306 306 306 307 307 308 308 309 310 311 311 311 310 310 310 310 310 310 310 311 311 312 312 313 313 314 313 313 313 315 316 316 316 317 318 317 316 316 316 316 316 316 315 315 316 316 317 317 318 319 320 320 319 319 319 318 317
316 316 316 316 315 315 314 313 313 312 311 309 306 303 304 304 304 303 303 303 303 303 304 304 306 307 308 308 308 307 306 306 306 306 306 307 308 309 310 311 310 310 310 309 308 309 309 309 309 310 311 312 313 312 313 313 312 312 313 314 315 315 314 315 317 316 315 315 314 314 315 315 314 314 314 314 315 316 317 319 319 319 319 318 318 318 317
317 316 317 316 315 315 314 313 313 312 310 309 306 303 303 304 304 303 303 303 303 304 305 306 308 308 308 307 307 307 306 306 306 306 306 307 307 309 310 310 309 309 310 309 308 309 309 308 309 310 311 312 313 312 312 313 312 312 312 312 313 313 314 314 314 314 314 314 312 312 314 315 314 314 313 313 314 315 317 318 319 319 318 317 317 317 316
317 317 317 316 315 315 314 313 312 312 310 309 306 303 303 304 304 303 303 303 303 303 305 306 307 308 308 306 306 306 307 307 307 307 307 307 307 308 309 309 309 309 309 309 309 309 309 309 310 311 312 313 313 312 312 313 312 312 311 311 312 313 313 313 313 313 313 313 312 312 314 314 313 313 313 313 313 315 316 318 318 318 318 317 316 316 316
317 317 317 316 315 314 313 312 312 311 310 309 306 302 302 303 303 303 303 303 303 304 305 306 307 308 307 307 307 307 307 307 307 307 307 307 307 308 308 308 309 309 309 310 310 310 310 310 310 311 311 312 313 312 312 313 312 311 311 311 312 312 312 311 312 312 312 312 312 313 313 312 313 313 312 312 313 314 316 318 318 318 318 317 317 316 315
316 316 316 315 315 314 313 312 312 311 310 309 306 302 301 302 303 303 303 303 304 305 305 306 306 306 306 307 308 308 307 307 306 306 307 307 307 307 308 308 309 309 310 311 311 311 311 310 311 312 312 312 313 313 313 313 311 311 311 311 311 311 311 310 311 312 311 311 312 313 312 312 313 313 311 310 312 314 315 317 318 318 318 317 317 316 315
315 315 315 315 314 314 313 312 311 311 310 309 306 303 302 303 303 303 303 303 303 304 304 304 305 305 306 308 308 308 307 307 306 307 307 308 308 308 308 309 309 310 310 311 311 311 311 311 312 312 312 313 313 314 313 312 311 311 311 311 311 311 311 311 311 312 312 311 311 312 312 312 313 312 311 310 311 313 315 316 317 318 318 318 317 316 316
316 315 315 315 314 314 313 312 311 310 310 309 306 304 304 304 304 303 304 303 302 303 303 303 305 306 308 308 307 307 308 308 308 308 309 309 309 310 310 310 310 310 311 311 311 311 311 311 312 313 313 313 313 312 311 311 311 310 310 310 310 311 311 311 312 312 311 310 310 311 311 310 312 312 311 310 310 312 314 316 317 317 318 318 317 316 316
316 315 315 315 314 313 313 311 310 310 310 307 305 305 305 305 304 304 304 302 301 302 303 303 304 306 307 307 307 308 308 308 308 308 309 310 310 310 310 311 311 311 311 311 311 312 311 311 312 312 312 312 312 311 310 310 310 309 309 309 309 310 310 310 310 310 310 310 309 310 310 310 311 312 311 310 310 311 313 315 316 317 317 317 317 316 315
315 315 314 314 314 313 312 311 310 310 309 306 305 306 307 307 306 305 304 301 301 302 303 303 305 306 306 308 309 309 308 308 308 308 309 310 311 311 311 311 311 311 311 312 312 312 311 311 313 313 312 312 312 311 310 309 309 309 309 309 309 309 309 309 310 310 310 309 309 310 310 309 311 312 311 310 309 310 312 314 315 316 316 317 317 317 316
315 314 314 313 313 312 310 310 309 309 308 306 305 305 307 307 306 305 302 300 301 303 303 304 305 306 307 309 309 309 308 308 309 309 310 311 312 312 312 311 311 312 312 311 311 311 311 311 312 313 312 311 311 310 310 310 309 310 310 309 309 308 308 309 309 310 310 309 308 308 309 309 311 311 311 310 309 310 311 312 313 315 316 316 317 317 317
315 314 314 313 312 310 309 309 308 308 307 306 304 303 304 304 303 302 301 300 301 303 304 304 305 306 307 308 309 310 309 309 309 310 311 312 312 312 312 312 312 312 312 311 310 311 312 312 312 311 311 311 310 310 310 310 310 310 310 309 309 309 308 308 308 309 309 308 307 307 309 310 311 311 310 310 310 310 310 311 312 313 314 315 316 316 317
314 314 313 312 310 309 308 308 308 308 306 305 304 305 305 304 303 302 300 301 303 304 304 304 305 306 307 308 309 309 308 308 309 310 311 311 311 311 311 312 312 312 312 311 311 311 312 312 312 311 311 311 310 310 310 310 310 310 310 309 309 309 309 308 307 308 309 308 307 307 309 309 309 309 310 310 310 310 310 310 310 311 312 313 314 315 315
313 312 311 310 308 307 307 307 307 307 305 304 305 306 306 305 304 302 300 300 303 305 306 305 305 306 307 308 309 308 307 308 309 309 309 310 311 310 310 311 311 311 311 311 311 311 312 312 311 311 311 311 310 310 310 311 311 311 310 310 309 309 309 308 307 308 309 308 307 307 308 308 308 308 309 309 309 309 310 310 310 310 310 311 312 313 314
312 310 309 308 307 306 306 306 306 306 305 304 305 306 305 304 303 301 300 300 302 305 307 307 306 307 307 308 308 307 307 308 308 309 309 310 310 310 310 310 310 310 311 311 310 310 311 312 311 311 310 310 310 311 311 311 311 311 311 310 309 309 309 308 307 308 308 308 307 307 307 307 307 308 308 309 309 309 309 310 310 310 310 310 311 312 313
311 310 308 307 306 305 305 305 305 305 305 305 305 305 304 303 302 302 302 302 302 303 305 306 307 308 308 308 307 307 307 307 307 308 309 309 309 309 309 309 309 309 310 310 310 310 311 311 311 310 310 311 311 312 312 311 311 311 311 310 309 309 309 308 307 307 308 307 307 307 307 307 307 307 308 308 308 308 309 310 310 310 310 310 310 311 311
310 308 307 306 306 305 304 305 305 305 304 304 304 304 303 303 303 304 304 303 303 303 304 305 306 308 308 308 308 308 307 307 307 308 309 309 308 308 309 309 309 309 308 309 309 310 310 310 310 310 311 312 312 312 312 312 311 311 311 310 310 309 309 309 308 307 307 307 307 307 307 307 307 307 307 307 308 308 309 309 310 310 310 309 309 310 311
308 307 306 306 306 305 304 305 305 304 303 302 302 303 304 304 304 305 305 304 304 305 305 305 306 307 308 309 309 308 307 307 307 308 309 308 307 308 308 308 308 308 308 308 309 310 309 309 310 310 311 312 313 312 312 312 312 311 311 311 310 310 309 309 308 307 307 307 307 307 307 306 307 307 307 307 307 308 308 308 309 309 309 309 309 310 310
307 306 305 305 305 304 304 304 303 302 302 302 302 303 305 305 305 305 306 305 305 305 306 307 307 307 308 308 308 308 308 307 307 307 308 308 308 308 307 307 308 308 308 308 309 310 309 309 309 310 311 312 313 312 312 312 312 311 311 311 311 310 309 309 309 308 307 307 307 307 307 307 307 307 307 307 307 307 307 308 308 308 308 308 308 309 309
307 306 306 305 305 304 303 302 302 302 302 303 303 303 304 304 305 306 306 305 305 306 307 308 308 309 308 307 307 308 308 308 307 307 306 307 308 308 307 307 308 308 307 308 309 309 309 309 309 310 311 312 311 311 311 311 311 311 311 311 311 311 310 310 309 308 307 307 307 307 307 307 307 307 307 307 307 307 307 307 307 307 307 307 308 308 308
308 307 306 305 304 303 302 301 301 302 302 302 303 303 304 304 305 306 305 305 306 307 307 307 308 309 309 308 307 307 307 306 306 306 306 306 307 306 306 306 307 307 307 308 309 308 308 308 309 310 311 311 310 310 309 310 310 310 311 311 311 310 310 310 309 308 308 307 307 307 307 307 307 307 307 307 307 307 307 307 307 307 307 307 307 308 308
307 306 305 304 303 302 301 301 301 301 301 301 302 304 304 304 305 306 306 305 306 307 308 308 308 308 308 307 307 306 306 306 306 306 306 306 306 306 305 306 306 306 307 308 308 308 308 308 309 310 311 310 309 309 309 309 309 310 310 311 310 310 310 310 309 309 308 307 307 307 307 307 307 307 307 307 306 307 307 307 307 307 307 307 307 307 307
305 304 303 303 302 301 302 302 302 302 303 303 303 305 306 306 305 306 306 306 307 307 308 308 308 307 307 307 307 307 307 307 306 305 305 306 306 305 305 305 306 307 307 307 307 307 307 308 310 310 310 310 310 309 309 309 309 310 310 310 310 310 310 310 310 309 308 307 307 307 307 307 307 307 307 307 306 306 307 307 307 307 307 307 307 307 307
304 302 302 302 301 301 302 303 303 303 304 305 304 305 307 307 307 307 307 307 308 307 307 308 308 307 307 307 306 306 306 306 306 306 306 306 305 304 305 306 306 306 306 306 306 307 308 309 310 310 310 310 310 309 309 309 309 309 310 310 310 310 310 310 310 309 308 307 307 307 307 307 307 308 307 307 306 306 306 307 307 307 307 307 307 307 307
304 302 301 302 301 301 302 304 303 303 305 305 305 306 307 308 308 308 308 308 308 307 308 307 307 307 307 306 306 305 306 306 305 305 306 305 304 304 305 306 306 306 306 306 306 307 308 309 310 310 310 309 309 309 309 309 309 309 309 310 309 310 310 310 310 309 308 307 307 307 307 307 308 308 308 307 307 306 307 307 307 307 307 306 306 307 307
303 302 301 302 303 302 302 303 304 304 305 306 307 307 308 308 308 308 308 308 308 308 307 307 307 307 307 306 306 306 306 305 305 305 305 304 304 305 305 305 305 305 306 306 306 306 308 309 309 309 309 309 308 308 308 309 308 308 309 309 309 309 310 310 310 309 308 307 307 307 307 308 308 308 308 308 307 307 307 307 308 307 307 306 306 306 306
303 302 301 303 304 303 303 304 305 305 306 307 307 308 308 308 308 308 308 308 307 307 307 307 306 306 306 306 305 305 306 305 305 305 304 304 304 304 304 304 304 305 305 305 306 306 308 308 308 308 307 307 307 307 307 308 307 307 308 308 308 309 309 309 309 309 308 307 307 307 308 308 308 308 308 308 307 307 307 307 308 307 307 306 306 306 306
302 302 301 302 304 305 305 305 306 307 307 307 307 307 307 307 308 308 308 307 307 307 307 307 306 306 306 306 305 305 305 305 304 304 304 304 303 303 304 304 304 305 305 305 306 307 307 307 307 306 306 306 306 306 306 306 306 307 307 307 308 308 309 309 309 308 308 307 307 306 307 307 308 307 308 307 307 307 307 307 307 307 307 307 306 306 306
302 301 301 302 303 305 305 305 306 307 307 307 307 307 306 307 307 307 307 307 307 306 306 306 306 305 305 305 305 304 305 305 304 304 304 304 303 303 304 304 304 305 305 306 306 306 306 306 306 305 305 306 305 305 305 306 306 306 306 307 307 307 308 308 308 308 308 307 307 307 306 307 307 307 307 307 307 307 307 307 307 307 307 307 307 306 306
301 301 301 302 303 304 304 304 305 306 307 307 307 307 306 306 307 307 306 306 307 306 306 306 306 305 304 304 304 304 304 305 304 304 304 304 304 304 304 304 305 305 305 305 305 305 305 305 305 305 305 305 305 305 305 306 306 306 306 306 306 307 307 308 308 308 308 307 307 307 306 307 307 307 307 307 307 307 307 307 307 307 307 307 307 307 306
300 301 302 303 303 303 303 303 304 304 305 306 306 306 306 306 307 307 306 306 306 306 306 306 305 305 304 304 304 304 304 304 304 304 304 304 304 304 304 304 305 305 305 305 305 305 304 304 304 305 304 304 304 304 305 305 305 305 305 305 306 307 307 307 308 308 307 307 307 307 307 307 307 307 307 307 307 306 306 307 307 307 307 307 307 307 307
Wind_Speed
20 21 22 24 26 27 28 30 31 34 34 32 29 22 14 12 9 12 20 21 18 12 5 6 6 5 8 11 10 11 9 10 12 13 14 12 9 10 9 8 9 10 8 4 1 0 4 5 6 10 12 10 9 14 15 12 9 8 7 6 5 3 4 6 8 8 9 10 9 10 9 8 8 8 7 8 8 8 9 9 8 7 8 9 6 9 12
20 21 22 23 25 26 27 29 30 31 31 29 27 21 14 13 10 10 17 18 16 10 6 6 6 6 10 11 11 11 10 11 11 11 12 10 8 10 9 9 11 10 11 9 1 2 2 4 5 9 11 11 15 18 16 13 11 8 5 4 4 4 4 5 7 8 7 4 2 5 5 4 5 7 7 10 11 12 11 9 8 9 11 12 8 10 11
19 21 22 23 25 26 26 28 29 29 27 24 21 18 16 14 8 8 16 15 9 7 6 7 6 7 10 10 10 11 10 10 11 11 11 10 11 11 9 11 13 11 12 13 7 2 4 3 5 7 10 12 15 17 18 16 12 7 8 8 5 5 5 5 6 7 7 6 5 5 4 3 5 7 9 11 11 13 11 7 7 9 11 11 9 11 13
18 20 22 23 24 25 26 27 28 27 25 24 20 14 13 11 5 9 16 15 9 6 8 10 7 6 9 8 8 11 10 9 13 14 10 11 14 13 10 11 12 12 13 12 9 5 3 4 6 8 10 10 12 17 20 16 10 8 11 10 5 4 6 7 7 7 7 9 10 9 8 7 7 8 11 12 11 12 9 6 8 9 9 11 11 11 17
18 19 21 22 23 24 25 26 27 26 23 23 21 15 11 9 6 6 9 10 9 8 11 13 9 6 7 7 8 12 12 10 12 12 10 13 15 12 10 12 12 13 14 10 7 7 7 7 9 10 11 10 13 19 15 8 7 7 9 9 4 3 7 9 10 11 11 12 14 13 11 10 10 10 12 11 11 10 8 9 10 8 8 10 9 8 14
18 19 20 22 23 24 25 25 27 27 23 21 21 16 11 9 7 7 7 5 5 7 10 12 12 7 5 6 8 11 13 12 11 10 11 14 14 10 9 14 16 16 16 10 5 6 7 7 8 10 12 12 14 16 9 2 4 7 8 8 3 3 7 9 11 14 15 14 14 13 10 10 10 10 11 11 11 10 9 11 12 9 10 12 11 13 17
19 20 21 21 22 23 25 25 26 27 23 18 17 15 12 10 8 8 9 7 9 8 7 11 13 7 7 6 8 10 13 14 12 10 11 11 12 11 11 16 19 19 17 12 6 6 8 7 8 10 13 13 12 12 9 3 3 7 10 7 4 3 5 9 13 15 16 14 12 11 9 9 9 10 12 12 11 11 11 12 13 13 14 16 17 21 22
19 21 23 22 22 22 24 25 25 26 24 17 14 13 13 10 7 9 12 11 11 11 9 10 10 7 8 7 8 10 13 14 13 13 12 9 10 13 14 18 20 19 17 15 10 10 11 10 10 11 12 12 10 7 6 6 9 12 9 6 6 4 5 10 12 11 12 12 9 8 8 8 9 11 12 12 11 12 12 11 11 11 14 16 14 16 19
18 21 24 25 23 21 22 24 23 25 25 19 13 12 14 10 6 9 11 9 10 11 11 9 7 5 7 7 8 10 13 14 14 12 12 11 11 13 17 19 18 16 16 15 15 17 18 16 17 16 13 13 11 8 8 10 11 10 8 7 7 6 6 9 8 8 9 8 8 11 10 9 9 11 13 14 11 9 8 7 7 8 11 12 10 10 13
18 20 23 26 24 19 20 23 22 23 24 20 13 11 16 13 7 9 9 8 11 12 9 8 6 5 6 8 10 12 13 16 15 10 9 13 16 17 18 18 15 14 15 15 16 21 23 23 25 22 18 16 14 12 13 14 11 8 7 8 6 5 7 6 5 7 9 9 11 14 11 6 5 8 12 13 10 8 7 8 10 12 12 9 8 10 9
18 20 23 26 24 19 17 20 21 22 23 21 15 12 16 14 9 12 10 7 11 12 8 6 6 5 8 11 12 12 13 16 15 9 8 14 18 18 19 18 13 10 15 19 23 27 28 26 26 22 18 16 14 12 14 14 12 9 8 7 6 7 9 6 4 5 9 12 14 13 7 3 5 7 6 7 8 9 9 8 10 13 10 5 6 10 9
18 20 22 25 24 18 15 17 20 20 21 20 16 12 17 17 11 11 10 6 9 11 8 7 7 8 11 14 12 12 14 15 15 14 12 12 15 16 16 17 13 11 19 27 29 29 25 20 16 12 12 13 11 11 12 12 12 12 9 7 7 7 8 6 4 4 7 11 10 7 5 3 6 11 7 4 5 3 9 10 6 14 15 12 6 4 4
18 19 22 25 24 17 13 15 18 19 20 19 15 11 15 17 11 9 11 7 6 9 9 8 11 14 16 15 14 14 16 16 17 17 14 11 14 16 16 16 15 17 24 28 27 23 15 10 8 6 4 4 4 7 9 9 10 10 8 7 8 7 5 4 4 4 6 7 6 7 6 4 6 14 14 12 14 12 2 4 8 21 20 13 8 7 10
17 19 22 25 23 17 12 12 16 18 19 19 16 11 10 14 10 8 9 6 6 12 13 9 10 16 17 16 15 14 14 15 16 15 13 13 13 14 18 19 19 22 25 23 19 15 8 6 7 6 6 4 2 5 7 7 8 9 11 13 11 6 3 3 3 3 5 7 6 6 6 6 11 18 20 18 18 20 13 3 9 22 22 18 14 15 17
17 19 23 24 21 16 12 11 14 17 18 19 17 12 9 16 13 7 7 7 8 11 10 8 10 15 17 16 14 12 10 10 12 12 15 15 12 15 21 22 21 23 24 17 11 7 6 6 7 6 8 8 6 6 7 8 8 10 13 14 12 7 3 1 2 3 5 7 7 7 8 10 13 18 24 24 23 24 17 4 7 19 25 24 17 14 17
17 20 23 23 19 15 12 10 11 15 17 17 15 10 9 18 14 7 5 7 7 7 8 12 14 16 15 13 13 12 8 7 8 9 11 14 15 20 23 22 21 24 23 16 8 6 6 6 7 7 6 8 8 7 7 9 8 10 14 15 15 14 7 3 2 4 7 7 7 8 7 7 14 22 25 29 32 29 16 3 7 15 22 25 19 15 17
18 21 23 22 18 14 11 9 10 13 15 15 13 8 7 14 14 9 5 6 8 10 11 12 14 14 11 9 10 11 10 11 10 8 8 11 16 22 24 22 22 24 23 14 6 6 7 6 7 7 6 7 8 6 7 9 8 11 16 15 15 14 8 5 7 7 8 8 6 5 3 5 18 24 24 32 37 26 11 9 9 14 23 28 22 18 18
19 23 24 21 16 13 11 9 9 11 14 15 13 8 5 13 15 9 4 6 9 10 10 12 14 12 9 8 9 11 11 13 12 9 9 10 14 21 23 20 18 19 20 13 5 5 8 6 7 7 5 7 8 5 5 7 7 10 14 13 11 10 7 8 9 8 9 9 7 5 2 6 19 25 27 36 33 16 13 15 10 15 26 30 26 23 22
20 23 23 19 15 12 10 8 8 10 13 14 12 7 3 11 15 12 7 6 8 12 14 12 10 10 9 10 11 11 11 13 11 8 7 7 13 20 19 14 14 15 15 12 7 6 7 6 7 6 5 7 7 3 4 7 6 9 12 11 10 9 6 7 9 8 9 8 7 5 2 8 24 29 27 29 20 8 12 14 15 20 25 26 28 28 25
21 22 20 17 14 11 9 8 7 9 12 13 12 8 2 9 16 16 10 6 8 15 14 7 5 10 12 11 11 10 11 13 12 10 7 7 15 19 11 8 14 14 10 9 8 6 6 6 6 5 4 6 6 3 5 7 7 10 12 9 8 8 7 7 7 7 7 7 9 7 3 12 30 29 18 15 13 11 17 20 20 27 29 27 31 32 29
19 20 17 15 12 10 9 8 7 9 11 13 13 9 4 8 15 15 9 5 8 12 8 3 6 11 10 9 11 11 10 10 11 11 11 11 14 13 6 7 13 11 7 7 6 5 5 6 5 4 3 5 5 5 7 7 7 11 13 8 5 7 6 4 3 5 6 7 9 6 3 13 27 24 14 15 20 26 32 27 22 28 34 33 31 32 34
17 17 15 13 11 10 9 8 7 8 9 12 12 9 5 8 13 13 10 7 8 14 15 11 9 11 10 10 11 10 9 10 10 9 11 12 12 10 7 10 14 11 9 8 5 3 5 5 4 4 4 4 5 7 8 7 6 11 13 8 6 8 9 5 3 3 3 4 7 8 7 17 28 25 22 29 35 38 40 34 26 28 34 34 30 32 37
16 15 13 12 11 10 9 8 7 8 9 10 11 8 4 6 10 10 9 9 12 19 21 16 12 14 15 12 9 7 8 9 8 7 8 9 11 10 7 10 12 11 10 10 5 4 5 5 4 4 4 4 5 6 6 7 5 8 10 8 7 13 16 11 5 3 1 3 13 17 13 20 29 29 30 37 40 39 40 37 31 29 31 34 34 34 36
15 14 13 12 11 11 10 8 6 7 9 9 10 7 3 4 8 8 7 8 11 14 14 11 10 11 10 8 5 6 8 8 8 9 8 7 8 8 6 10 12 11 10 10 7 6 6 5 4 3 3 3 3 4 4 5 5 6 9 8 7 15 20 13 7 9 5 4 15 20 13 17 28 30 33 41 43 41 40 37 33 30 29 32 34 33 32
15 15 14 13 11 10 10 9 7 7 9 9 9 8 4 6 8 9 6 7 9 9 8 10 9 7 7 7 6 5 7 8 9 9 9 9 8 8 8 11 11 10 10 9 7 7 8 7 4 4 3 2 3 4 4 4 4 6 8 7 6 12 18 12 7 11 7 4 15 21 14 15 27 30 32 38 41 40 39 38 35 31 28 28 32 34 33
17 16 15 14 11 10 9 9 7 7 8 9 9 8 4 3 7 8 5 7 10 9 7 9 10 10 10 11 8 6 6 6 7 8 10 11 11 11 11 11 10 9 10 9 8 10 11 7 4 5 5 4 4 3 2 2 4 4 5 8 8 10 12 10 8 9 7 7 17 24 15 13 25 34 35 38 39 37 38 38 35 33 31 30 31 33 35
18 17 16 13 11 10 9 8 7 7 9 9 9 9 7 4 4 4 4 6 9 6 5 8 14 16 15 13 10 8 7 7 7 8 10 11 12 13 12 11 10 11 11 10 10 10 9 6 5 6 6 6 3 1 2 1 4 4 4 10 12 9 8 9 8 7 8 8 14 18 12 8 17 29 35 39 39 36 36 37 35 33 33 32 31 32 34
17 15 14 12 10 9 8 8 8 7 9 9 10 11 9 4 2 2 4 4 5 6 9 15 19 18 14 10 7 6 7 8 8 9 11 11 11 12 12 12 11 10 10 11 10 7 6 5 6 7 8 7 4 1 4 2 3 6 5 9 12 10 8 9 6 5 8 12 16 16 12 10 15 23 30 36 38 36 35 35 34 32 31 31 31 33 32
15 12 11 10 10 9 8 8 8 8 8 9 9 9 6 2 1 2 5 4 4 7 12 16 16 13 11 10 8 7 7 8 8 10 11 11 11 11 11 11 11 9 10 10 9 8 8 6 7 6 6 6 5 3 2 2 4 6 8 11 13 11 9 9 8 7 10 16 19 17 14 15 17 20 26 32 35 35 34 33 32 32 31 29 29 32 31
13 11 10 11 10 9 8 9 9 8 8 7 6 5 3 2 4 7 7 6 5 5 8 9 9 10 12 12 10 8 6 6 8 10 10 10 11 11 10 10 9 8 9 9 7 8 10 6 5 5 9 8 5 3 5 5 5 7 12 15 15 13 12 11 11 11 13 16 18 15 14 17 18 18 23 29 33 33 32 31 30 30 29 28 27 30 31
14 12 11 11 11 9 9 9 10 8 7 4 2 2 2 2 6 7 8 10 7 5 6 9 11 14 15 12 8 7 6 6 7 8 8 8 9 8 8 9 8 8 8 9 9 9 10 6 2 3 6 9 7 4 5 6 4 7 14 18 16 15 14 13 12 13 14 16 17 14 13 17 20 19 22 28 32 31 30 29 28 26 27 28 27 27 29
14 13 12 12 11 9 9 10 10 8 7 5 4 4 4 4 6 8 10 11 8 4 5 8 9 9 8 8 6 5 5 7 8 8 8 6 6 6 7 7 8 7 7 8 8 7 6 5 3 3 5 8 7 4 5 5 5 7 13 16 15 15 15 14 14 14 13 15 17 15 14 18 20 19 20 25 28 29 30 29 27 25 24 25 26 26 27
12 12 12 11 10 9 10 10 10 8 7 6 5 4 6 7 9 11 12 10 7 4 5 6 6 3 6 10 8 4 5 8 9 8 8 7 4 5 6 7 7 8 7 6 5 5 4 3 3 3 5 6 5 3 4 4 6 9 12 14 15 16 16 15 15 14 13 14 16 13 12 16 18 17 17 21 23 25 28 29 27 26 25 26 27 27 26
11 11 12 11 10 10 10 10 10 8 6 5 4 3 4 6 7 9 9 7 5 5 6 6 4 4 8 11 7 1 2 8 8 5 4 5 4 4 6 6 5 6 6 7 7 7 6 4 3 2 3 4 4 4 3 4 7 9 11 13 14 15 15 16 16 15 13 14 15 14 13 13 14 15 17 19 20 22 26 28 28 28 29 29 29 27 25
11 11 11 11 11 11 11 10 9 7 5 4 4 5 6 7 9 10 9 7 5 5 6 7 6 5 7 8 4 3 5 7 8 6 3 2 4 5 6 5 5 5 5 5 6 6 5 3 2 1 1 2 3 3 3 5 7 9 10 12 14 15 15 16 17 16 14 14 15 15 15 15 14 14 16 18 19 20 23 26 28 27 27 28 29 28 25
11 11 12 12 11 11 10 9 8 7 5 3 4 6 8 10 12 12 11 8 7 6 6 6 6 5 6 6 3 4 6 7 6 6 5 3 3 4 6 6 5 3 4 5 6 5 2 1 1 1 1 1 2 3 4 6 7 8 10 11 13 14 14 15 16 15 14 13 14 15 15 16 16 16 16 18 19 19 20 23 25 26 26 26 27 27 26
11 11 12 12 11 10 9 8 8 8 6 4 5 7 10 10 9 8 7 6 7 8 7 7 7 7 8 7 4 3 5 6 6 7 5 3 4 5 6 6 4 2 2 6 6 3 1 1 2 1 0 1 2 3 4 6 6 7 8 10 11 12 13 14 15 15 14 13 14 15 15 16 17 18 17 17 18 19 19 20 21 22 23 23 22 24 25
11 11 12 12 10 9 8 7 8 8 8 6 4 4 7 7 6 5 5 5 6 9 9 7 8 10 12 9 4 2 4 5 6 6 4 3 4 5 6 4 1 1 3 5 1 2 1 2 1 0 1 3 3 3 4 5 5 6 7 8 9 11 12 13 15 16 16 14 14 15 16 16 16 17 17 17 17 17 16 17 17 17 19 20 20 19 22
12 13 14 13 11 9 7 6 6 6 7 6 4 3 4 6 5 5 6 7 7 8 9 8 10 13 12 9 3 1 3 5 6 5 4 4 3 3 4 3 1 1 5 4 2 2 3 4 1 1 2 2 2 3 4 5 5 6 7 8 8 9 11 12 14 15 14 13 12 12 13 14 15 16 16 17 16 15 14 14 15 15 16 18 19 18 19
15 15 14 14 13 11 7 6 6 6 6 4 3 3 4 6 6 5 5 5 5 7 8 8 10 12 10 7 5 1 2 3 5 5 5 5 3 3 4 4 2 3 5 4 1 1 4 5 2 2 2 1 3 4 5 5 5 6 7 7 8 8 9 10 12 13 13 12 10 10 11 12 12 14 14 15 16 16 14 13 13 14 15 15 16 16 16
16 16 14 13 13 11 9 8 8 6 4 2 3 3 4 5 6 6 4 3 4 6 8 8 9 9 8 6 6 4 1 2 3 6 6 4 1 2 4 5 4 4 5 3 2 1 3 4 3 1 1 2 3 4 5 6 6 7 7 7 8 8 8 9 10 11 12 12 11 11 11 11 11 12 13 14 15 15 14 12 12 13 14 14 14 14 14
12 12 11 10 12 12 10 9 7 4 2 1 3 3 3 4 5 5 5 5 5 5 7 9 6 4 5 6 6 5 1 3 3 5 6 2 0 1 4 4 3 4 4 3 4 3 3 4 3 0 3 3 2 4 6 7 8 8 7 7 8 8 8 8 8 9 11 12 11 10 10 10 10 11 12 13 14 14 12 12 12 13 13 13 12 12 13
11 10 10 10 13 12 9 5 4 3 2 1 2 2 3 4 4 4 5 6 5 4 5 7 4 2 4 6 7 5 2 1 3 4 5 3 2 2 3 3 3 3 4 5 4 4 4 3 2 1 3 3 4 5 6 8 8 8 7 7 8 8 8 8 8 9 10 11 10 9 9 9 9 10 11 12 12 12 12 12 12 12 13 13 12 12 12
14 13 11 10 10 9 5 4 5 5 3 2 3 3 3 4 5 5 4 5 6 5 5 6 4 4 5 6 5 5 3 3 2 3 4 4 3 2 3 3 3 4 5 4 4 5 3 1 2 3 3 4 4 5 6 7 8 8 8 8 8 8 8 8 7 8 9 10 9 9 9 8 8 9 10 11 11 11 11 12 12 12 13 12 12 11 11
16 14 10 5 5 6 5 3 4 5 4 3 4 4 4 4 5 5 3 4 4 3 5 7 6 5 4 5 2 3 2 3 4 3 3 3 2 2 3 4 3 4 4 4 5 4 2 1 3 3 3 3 4 5 6 7 7 8 9 9 8 8 8 9 8 7 9 10 9 8 8 8 8 9 9 9 9 10 11 11 11 12 13 12 12 12 11
16 13 8 3 2 5 5 3 3 4 4 4 6 7 6 5 5 5 3 3 4 4 5 6 7 7 4 4 3 3 4 4 3 3 3 3 3 2 3 4 4 4 4 5 5 4 1 1 2 2 2 3 5 6 6 7 7 8 9 9 9 8 8 9 8 7 8 9 8 7 7 7 8 9 8 8 8 9 9 10 10 11 12 12 12 11 11
13 10 6 2 2 4 5 4 4 5 5 7 10 10 10 11 10 7 4 4 6 6 5 5 6 7 5 4 4 5 5 4 4 3 3 3 3 3 3 3 4 4 4 5 6 3 2 4 4 4 4 4 6 7 7 7 8 9 9 10 10 9 9 9 7 6 7 8 8 7 6 7 8 8 7 7 7 7 8 9 10 10 11 12 11 10 11
13 9 5 3 2 3 5 6 7 7 8 8 9 10 11 13 13 9 6 6 8 7 5 6 6 7 6 4 4 5 5 4 4 4 2 1 2 2 2 3 3 3 4 5 5 3 3 3 3 4 5 5 6 7 7 8 9 10 10 11 11 10 11 10 7 5 6 7 7 6 5 6 7 7 6 6 6 6 7 7 8 9 10 10 10 10 10
14 9 5 3 3 4 6 7 7 8 10 9 8 8 9 10 11 10 8 6 5 6 7 6 4 3 4 4 3 5 5 4 3 3 2 2 2 2 2 3 4 4 4 4 3 3 4 3 3 4 5 5 6 7 8 9 10 10 11 11 12 12 12 10 7 4 4 6 6 6 5 5 6 7 6 6 6 6 5 6 6 7 7 9 9 9 9
12 7 5 5 4 3 4 5 4 5 8 10 10 9 8 9 11 11 8 6 6 7 7 6 3 2 4 4 4 4 4 3 3 4 4 4 3 3 4 5 5 5 4 3 3 3 3 4 4 5 5 5 6 7 8 8 9 10 10 11 12 12 13 12 8 5 4 5 5 5 5 5 6 6 6 6 6 5 4 5 6 6 5 6 7 7 8
9 6 7 9 7 4 3 3 3 3 5 8 10 9 9 10 12 10 7 7 8 7 6 6 6 4 4 4 4 4 3 2 3 4 5 4 3 4 5 5 5 4 5 4 3 2 3 3 4 5 6 6 6 7 7 8 8 9 10 11 11 12 13 12 9 5 4 5 5 5 5 5 5 5 6 6 5 4 4 5 7 6 5 5 5 5 6
7 5 5 9 12 10 6 4 4 5 6 7 8 8 10 13 13 7 6 7 8 8 7 8 7 4 3 4 5 4 3 3 3 4 5 4 4 4 5 6 5 3 4 4 3 3 2 2 3 3 5 6 6 6 7 7 7 8 9 9 10 11 12 12 9 6 3 3 4 6 5 4 4 5 5 5 6 5 5 5 6 6 6 5 4 4 5
Wind_Direction
12 9 7 6 8 8 7 6 5 6 7 9 12 16 8 346 332 331 338 354 1 341 346 18 358 21 360 324 345 11 348 340 348 346 352 351 340 340 335 329 332 330 334 344 142 311 299 268 289 319 318 318 330 333 335 332 311 301 307 324 342 327 275 277 284 288 272 257 266 280 291 306 291 270 262 257 253 251 255 267 279 281 276 271 273 268 266
15 13 10 8 9 10 9 8 9 9 8 8 9 10 355 323 311 330 339 348 3 11 18 359 352 18 355 335 358 10 351 350 353 349 351 344 336 337 330 330 333 325 324 324 280 154 295 272 289 315 317 323 328 327 332 332 314 307 327 345 345 319 286 301 310 305 291 274 282 291 294 308 284 266 271 270 263 261 261 261 270 271 261 257 259 262 262
17 15 12 11 11 9 10 12 12 11 11 10 6 358 341 317 298 340 344 337 355 35 35 359 350 6 353 339 354 1 351 359 18 12 348 338 343 337 322 327 328 322 325 326 321 210 192 245 296 309 315 316 316 320 328 325 310 313 335 329 311 292 285 299 304 303 313 314 311 310 304 290 273 263 265 270 270 269 266 261 260 259 258 254 250 260 272
16 16 13 12 12 10 10 12 14 14 14 13 11 357 337 325 319 348 342 335 349 35 36 15 356 353 353 334 344 360 348 351 20 17 349 344 349 332 318 331 330 328 332 328 320 304 243 246 276 298 314 312 309 318 324 323 318 325 323 308 293 288 282 280 281 285 294 295 295 303 302 296 290 281 277 275 274 274 269 260 251 256 276 270 250 256 277
15 15 12 12 12 11 10 10 14 16 17 21 19 2 338 335 342 352 340 333 349 14 22 9 342 332 350 331 341 357 344 341 6 4 346 346 345 329 325 338 337 338 338 326 311 319 309 288 291 309 318 314 313 316 323 334 320 307 306 301 290 283 283 283 284 285 289 293 296 299 298 297 294 291 290 288 289 288 269 252 254 266 288 273 253 259 276
11 11 11 11 10 10 9 9 13 14 17 28 23 6 359 355 342 355 3 335 327 353 6 347 322 331 10 344 344 350 341 347 359 351 344 344 343 340 332 334 341 341 335 325 312 323 315 304 322 333 327 322 320 318 327 339 265 283 315 322 309 280 285 291 296 299 304 304 304 306 303 298 293 287 284 280 280 276 256 251 258 259 260 263 277 293 287
5 6 5 8 8 9 8 7 12 14 17 32 30 12 9 1 342 354 358 322 296 307 328 322 318 352 34 360 354 351 340 349 355 343 342 341 343 346 330 330 340 337 330 329 327 330 327 321 331 332 323 318 315 317 328 326 291 319 332 334 339 302 282 303 313 310 307 304 309 317 309 296 287 273 267 266 265 263 259 259 258 253 253 262 277 287 285
0 1 360 1 1 5 6 6 10 12 16 33 40 19 10 3 342 337 332 315 300 296 298 307 315 356 22 1 356 348 338 345 346 338 341 336 332 339 331 330 334 331 329 334 332 332 333 323 318 321 320 316 313 318 322 320 330 335 330 330 335 314 291 315 321 308 298 300 303 301 287 272 269 267 264 259 255 259 262 261 258 253 253 258 264 272 277
355 358 356 355 354 359 4 4 7 10 14 28 38 19 11 3 324 321 324 314 309 306 304 315 325 359 10 354 342 335 335 342 338 331 335 331 325 333 332 330 331 327 328 335 334 331 326 316 310 307 300 296 298 298 297 307 322 324 315 314 317 309 301 310 317 306 296 295 286 281 276 263 265 274 271 264 257 254 257 259 261 257 256 266 270 259 259
347 351 351 351 350 353 359 1 5 8 11 23 35 13 3 7 343 326 325 299 298 306 311 332 353 4 351 337 328 326 331 337 335 327 328 330 331 333 328 325 327 326 329 336 332 321 312 306 304 299 288 282 280 275 277 287 293 292 300 305 298 300 303 303 321 306 289 291 293 287 281 269 274 276 260 254 249 238 247 268 269 260 253 250 248 247 251
336 340 345 347 346 349 356 358 1 5 7 17 29 5 354 10 0 326 323 304 304 316 329 352 4 354 337 335 331 327 326 329 333 331 326 330 332 330 325 325 328 330 332 331 324 314 305 298 293 285 276 274 274 271 270 272 277 276 282 292 294 295 294 298 315 287 286 302 299 287 286 318 330 311 266 243 244 227 219 239 262 269 270 258 228 237 255
329 332 339 343 342 344 351 353 356 3 4 9 24 11 348 359 3 333 328 318 308 320 333 341 346 351 345 340 334 325 322 326 335 335 327 325 330 329 328 331 336 337 331 328 324 318 310 302 296 282 265 258 261 274 268 262 273 273 259 264 289 295 295 304 299 270 292 301 295 311 344 338 305 309 307 303 303 249 180 189 280 331 345 348 325 236 238
326 331 336 340 341 338 342 350 351 359 1 2 25 32 344 339 356 348 332 320 304 321 328 324 339 355 353 341 330 323 323 329 337 336 328 322 330 340 346 345 343 337 332 330 329 326 321 324 336 341 310 254 255 294 285 267 277 283 276 288 295 288 293 307 296 284 299 305 321 345 325 272 306 330 341 351 347 348 25 165 344 354 1 356 352 47 47
325 332 334 337 338 334 335 346 346 352 359 357 13 34 345 334 4 7 341 338 311 310 313 313 338 350 343 332 328 326 330 337 338 334 327 320 331 353 357 351 345 340 336 336 335 334 340 349 351 7 19 22 2 332 329 325 327 336 340 332 317 297 281 297 305 310 314 321 336 334 312 325 352 351 347 346 339 335 337 1 2 357 1 1 8 36 31
325 331 333 334 336 332 330 338 341 348 355 357 16 35 336 325 352 3 332 331 312 306 322 342 344 338 328 325 332 337 340 341 339 336 327 323 346 11 1 351 348 346 346 350 348 343 354 358 360 16 21 12 353 335 341 346 345 347 345 337 332 337 356 24 339 320 322 331 348 1 1 1 357 344 336 333 331 327 325 352 26 2 359 356 359 26 22
325 328 332 333 333 328 324 329 336 342 348 358 25 41 315 309 334 353 324 321 312 303 326 339 335 324 314 321 343 352 345 329 337 346 329 328 358 10 358 351 354 355 359 3 359 359 8 8 11 17 20 9 350 336 349 349 338 339 343 346 353 358 7 50 26 342 342 352 9 17 20 5 346 337 332 332 329 322 315 8 38 6 355 347 351 22 23
324 327 330 330 328 324 319 321 331 337 343 353 10 22 317 307 328 350 337 320 307 288 299 329 338 326 317 332 351 350 337 325 335 350 328 329 358 1 352 352 360 6 13 12 358 12 20 16 15 15 20 12 351 334 346 343 333 340 343 348 1 3 357 6 9 1 355 355 9 28 52 5 346 339 334 330 321 315 339 31 17 354 349 349 0 21 17
323 326 328 325 322 320 315 318 327 330 338 347 359 19 338 309 326 349 339 318 311 287 295 333 339 323 321 333 325 323 329 327 330 338 326 332 357 354 347 352 2 11 18 14 2 21 20 16 17 8 1 6 357 335 329 328 331 346 343 345 1 359 352 4 5 1 359 359 4 16 73 16 350 339 335 331 320 323 27 21 346 341 347 352 11 23 12
323 323 323 319 317 316 311 314 322 325 333 340 351 20 329 297 326 353 338 307 300 287 297 320 320 306 315 319 308 310 323 324 327 339 333 339 353 345 340 353 4 5 13 15 11 19 17 16 17 359 344 359 359 335 318 329 346 355 342 345 2 354 344 5 4 354 359 2 355 353 46 16 352 339 338 345 345 9 20 349 335 351 353 358 18 26 17
321 320 318 315 314 312 307 308 313 321 329 331 339 6 335 290 323 342 333 306 296 296 306 327 310 305 314 311 306 311 317 320 334 346 336 332 344 343 340 360 1 358 9 13 10 17 13 3 2 354 341 348 349 338 331 339 6 10 351 348 8 356 341 2 9 354 353 4 5 4 7 352 349 345 346 4 14 2 342 337 352 6 7 11 20 23 21
318 317 316 312 311 306 302 306 309 316 325 325 334 2 8 302 320 331 324 307 291 290 306 332 293 298 305 298 295 298 297 303 320 329 322 321 336 344 347 357 358 1 7 356 355 19 13 352 354 359 335 333 345 351 347 348 4 5 355 351 12 7 352 357 7 353 357 12 9 359 314 341 353 359 2 358 359 356 351 351 1 10 14 18 19 20 23
315 315 311 307 306 301 294 296 303 312 319 320 329 357 9 322 324 325 318 309 282 282 299 314 306 307 314 302 288 279 277 284 293 305 310 314 323 328 338 355 360 8 16 6 352 359 358 347 351 350 327 329 348 348 356 11 6 355 358 5 17 14 2 344 341 2 30 43 8 349 351 1 2 6 5 359 360 1 1 1 5 12 19 22 20 21 25
315 313 306 302 303 299 290 287 294 305 310 316 328 343 340 310 312 310 307 307 295 294 301 306 302 306 314 311 293 273 269 272 274 279 287 299 310 315 343 10 1 354 14 25 7 332 340 339 329 327 325 340 347 338 357 24 13 352 1 7 9 10 3 351 359 23 69 38 8 356 2 14 7 2 4 5 3 2 3 5 8 15 23 25 24 25 27
320 312 301 296 297 296 291 284 287 296 300 312 324 325 330 341 329 317 317 322 317 314 313 302 289 300 319 326 304 270 262 262 268 272 271 281 298 304 338 10 358 341 353 10 354 315 307 302 287 285 303 329 343 342 360 19 12 356 1 1 1 4 359 351 5 15 4 12 5 354 356 19 13 3 3 5 3 2 5 7 11 19 26 28 28 30 30
322 313 299 290 288 290 288 281 281 289 296 311 321 319 355 17 335 311 319 333 323 319 316 307 305 317 329 321 295 262 258 260 262 265 263 264 271 278 301 334 344 335 327 333 329 305 300 307 305 298 309 352 19 11 7 12 9 3 8 10 350 347 350 348 358 7 4 9 2 354 352 15 16 9 7 5 3 2 5 8 14 22 28 29 28 29 31
315 308 299 288 279 278 279 274 272 280 291 307 315 310 314 327 295 287 310 333 315 289 261 279 306 322 321 309 296 286 278 259 250 256 259 258 260 266 281 301 319 323 311 300 288 284 291 305 307 303 332 29 41 20 3 4 12 19 21 15 355 339 347 353 350 356 6 3 357 355 352 5 11 9 8 7 5 3 5 9 15 22 29 30 28 28 30
309 304 296 285 273 270 272 265 257 268 287 300 307 304 295 280 280 296 329 336 323 296 253 281 306 313 311 299 285 280 273 257 253 260 259 259 262 263 267 278 295 310 309 295 282 277 277 284 295 312 349 15 23 148 188 281 15 37 24 6 4 360 1 4 357 2 17 6 352 352 352 356 4 5 5 7 7 6 6 10 14 21 28 31 29 29 30
308 303 293 280 270 267 269 258 245 258 283 296 304 308 304 297 310 304 293 311 323 300 285 294 300 303 306 306 293 275 261 253 256 262 264 267 268 263 262 267 275 291 305 305 301 291 283 306 336 349 356 356 353 143 170 187 28 37 21 7 12 16 14 11 359 344 359 359 352 353 359 358 357 1 4 6 7 8 9 10 14 21 27 31 32 30 28
303 298 286 274 268 266 263 251 242 253 278 294 309 319 323 348 24 273 269 294 312 294 293 299 298 295 302 309 303 288 270 259 260 265 266 269 268 263 262 262 262 273 293 299 302 303 304 331 8 1 331 328 341 4 35 47 46 39 22 14 17 20 21 14 352 331 348 357 353 353 3 4 357 359 4 5 8 10 11 11 16 22 26 31 34 33 29
297 290 278 268 263 260 255 243 236 248 271 291 315 325 310 246 224 237 266 307 320 305 306 308 297 295 303 302 290 283 282 274 273 274 272 270 271 267 261 258 255 259 273 280 286 297 303 327 18 347 316 317 329 347 10 23 41 40 25 18 18 18 18 12 359 351 355 356 351 351 5 7 359 359 7 9 9 11 14 15 18 23 27 30 33 35 35
293 286 275 267 261 254 246 235 231 245 265 272 290 309 288 221 209 233 285 320 322 303 299 293 285 293 301 292 264 258 285 300 293 283 274 270 270 266 258 259 256 248 257 271 278 283 291 307 12 356 322 321 323 347 24 23 23 25 20 16 16 12 8 9 9 4 358 356 355 357 6 9 5 3 9 10 10 12 19 21 19 21 26 30 32 36 39
290 284 274 268 260 247 235 228 227 238 253 250 237 245 251 236 233 261 296 313 310 293 298 298 292 294 301 298 272 248 275 298 289 266 249 246 259 261 252 255 262 258 258 276 284 280 284 304 325 338 332 320 317 351 42 31 17 15 12 11 12 8 6 10 13 7 4 6 4 360 4 10 10 6 6 7 8 13 19 23 23 25 28 31 33 35 37
285 279 269 262 251 235 226 225 225 231 244 253 258 262 257 254 261 275 292 307 305 272 268 291 297 283 293 305 303 264 265 294 288 256 227 210 225 263 257 251 266 268 251 248 269 276 271 276 291 318 343 340 342 25 47 24 16 13 8 9 11 7 6 10 11 11 14 11 4 4 16 19 14 7 5 5 8 13 17 21 26 30 31 30 29 29 30
270 266 260 249 236 227 222 220 224 234 243 243 244 263 277 281 284 285 291 307 307 263 244 257 275 278 284 289 285 217 317 315 309 285 230 186 189 265 274 257 256 259 239 232 259 281 286 283 281 302 351 1 14 34 33 20 18 11 5 10 12 7 6 9 9 12 16 9 3 11 24 21 12 9 9 9 10 13 14 16 21 27 29 27 24 23 24
254 248 242 230 221 220 218 215 221 233 237 234 247 272 286 293 294 289 286 290 285 260 242 238 242 264 291 290 294 46 6 315 296 296 295 213 209 259 274 258 239 229 219 229 258 273 276 288 310 312 316 350 20 27 11 9 12 8 5 10 11 7 8 9 6 6 10 9 7 9 9 6 8 13 12 10 10 12 14 17 19 23 26 25 22 22 22
238 231 224 217 214 217 217 215 218 220 215 219 246 263 276 289 293 289 281 269 249 246 267 275 261 262 290 297 320 5 341 313 303 307 300 272 253 256 252 253 257 233 201 230 256 263 261 16 10 302 271 301 2 25 16 5 4 7 7 8 9 9 9 8 4 1 5 9 9 8 6 5 9 12 12 11 9 10 16 21 20 21 24 24 19 18 19
230 221 214 209 209 212 215 218 220 217 212 213 230 252 271 285 293 289 278 259 232 228 252 283 280 270 281 296 322 341 330 336 343 325 303 315 332 298 260 256 280 301 239 246 250 249 288 342 329 316 360 52 58 50 30 13 9 10 6 4 7 8 6 5 4 3 4 6 6 7 8 9 9 10 11 11 8 8 15 21 20 19 22 23 18 13 13
217 210 206 205 205 207 212 220 221 217 215 217 228 262 273 271 264 250 237 227 218 219 228 251 262 262 269 281 296 326 337 339 326 310 316 10 352 302 274 271 327 352 281 271 263 95 253 266 268 69 103 108 102 64 26 20 22 18 7 1 3 3 1 2 4 3 4 6 5 2 3 5 6 6 8 9 8 8 12 15 16 18 21 23 21 14 8
203 198 199 202 203 203 209 217 214 203 202 208 221 259 258 244 241 232 208 196 203 214 217 228 245 253 261 269 262 86 27 336 299 296 340 1 337 316 317 324 355 305 280 282 75 91 267 265 224 160 178 141 102 23 4 9 13 12 6 0 357 354 355 0 4 3 5 9 7 1 359 359 360 0 2 4 6 7 8 8 11 15 17 19 21 17 9
199 197 198 199 197 196 196 195 185 173 170 185 221 259 252 232 227 224 203 194 210 219 211 218 235 241 251 278 295 351 53 346 307 312 332 328 317 330 325 314 322 312 289 286 88 102 280 283 269 218 202 99 47 8 355 355 357 359 360 357 353 350 350 355 360 1 3 5 4 1 359 358 357 357 359 360 0 2 4 5 7 8 9 10 13 16 13
200 201 205 204 198 191 180 166 159 151 147 185 229 248 246 231 230 235 232 223 230 218 203 212 236 231 211 226 265 271 88 52 334 306 300 299 323 323 303 302 312 300 284 300 35 10 290 290 291 250 145 89 43 2 346 343 345 348 346 346 349 349 344 345 351 356 358 358 359 359 360 359 358 357 357 359 1 1 2 4 4 3 4 4 5 10 13
201 205 210 201 186 176 166 157 154 148 149 221 233 237 242 235 229 229 227 237 261 241 197 198 232 241 183 198 246 269 360 28 333 277 265 268 48 278 282 295 298 276 280 340 3 328 280 284 294 221 121 102 42 359 347 342 341 339 336 340 347 346 339 337 341 349 353 354 356 0 1 359 359 360 358 359 3 5 7 9 9 5 2 2 2 3 8
194 193 192 177 164 160 160 164 167 164 167 212 211 217 235 229 222 226 223 223 245 244 182 175 198 206 172 199 236 241 220 328 311 271 260 276 303 289 282 282 273 284 321 342 323 281 276 298 315 74 92 64 25 5 352 346 344 339 335 339 345 344 341 334 330 338 349 352 356 2 4 359 358 0 360 2 9 14 15 16 15 9 4 5 6 4 4
182 170 168 164 156 153 156 167 170 174 196 222 204 205 218 209 209 228 224 197 202 209 185 178 215 234 192 196 233 247 215 194 204 234 260 278 290 287 277 268 271 303 327 321 283 270 287 6 70 73 56 35 19 5 354 352 351 346 341 341 340 343 346 340 326 330 345 352 355 359 1 359 359 360 1 7 15 17 15 14 13 10 8 9 11 10 8
176 161 154 148 151 161 165 159 170 191 215 215 199 214 234 216 211 232 225 173 167 190 187 190 221 242 203 178 209 276 250 198 185 202 250 275 272 265 277 290 304 311 306 289 279 283 297 100 103 82 48 18 358 352 355 358 355 349 345 342 338 338 343 341 330 324 336 346 352 353 353 353 355 357 0 7 12 12 12 12 12 11 11 13 15 16 15
179 169 161 145 169 191 191 178 177 197 212 211 210 223 240 246 253 271 265 197 186 198 205 216 237 245 226 198 213 243 247 244 245 255 268 273 271 278 301 310 306 293 284 284 284 285 310 37 37 24 13 355 344 345 355 2 360 355 351 345 338 333 334 335 328 320 326 339 348 350 347 349 352 354 357 1 5 8 10 11 12 14 14 17 20 20 18
180 173 171 175 203 200 203 210 206 205 216 223 221 226 239 251 259 268 264 233 228 220 205 217 243 248 247 256 264 252 241 242 253 259 258 271 286 298 305 301 288 275 273 281 284 294 34 51 32 3 348 350 353 353 355 359 359 356 351 345 338 330 324 322 318 312 320 336 348 350 346 348 350 350 353 357 2 5 6 7 11 15 16 18 22 22 20
180 168 173 200 204 187 204 221 220 220 230 236 232 234 244 252 257 257 246 240 250 249 219 208 234 249 245 242 262 266 250 231 238 254 257 269 295 293 284 279 280 276 268 270 282 325 36 61 44 2 350 358 4 358 354 355 355 350 345 343 340 330 322 323 324 317 319 334 348 350 345 344 345 345 348 352 353 353 356 360 4 8 13 18 23 21 20
185 175 185 228 245 227 221 217 212 219 231 236 243 255 257 254 256 258 245 220 224 241 232 216 221 257 241 210 222 256 254 230 226 246 232 211 226 252 255 262 270 272 270 276 314 4 8 357 352 350 348 356 360 353 348 350 352 347 341 338 335 329 325 324 318 297 302 321 334 341 340 338 340 343 344 341 339 341 347 354 358 2 10 17 22 24 23
190 191 206 221 225 223 214 204 203 221 227 226 231 241 246 246 250 252 239 205 202 229 235 219 200 244 259 240 228 244 250 240 238 247 245 244 253 255 251 257 265 272 285 313 356 14 1 354 358 351 344 352 360 352 344 346 348 346 342 337 333 330 326 317 300 276 291 316 325 331 331 331 340 347 346 342 342 343 339 340 349 359 7 8 14 23 26
193 209 221 218 214 206 179 172 191 216 221 224 228 225 226 242 251 245 220 208 218 224 222 217 214 225 249 247 236 241 258 261 251 248 250 255 261 255 251 256 265 279 300 317 332 336 338 1 12 354 344 354 3 351 342 345 349 347 345 340 334 330 326 319 307 292 297 315 322 323 319 324 339 345 340 339 347 351 339 339 353 6 8 2 9 23 24
189 205 224 218 215 214 208 199 216 228 226 232 239 237 238 248 252 233 192 210 231 228 220 223 224 218 226 237 239 246 257 250 241 246 252 257 260 263 268 275 283 307 336 331 304 284 302 16 40 1 339 346 355 347 340 346 355 354 350 346 341 337 336 336 336 328 304 298 318 323 324 337 354 340 324 331 353 5 4 2 5 8 1 353 356 7 10